• In Slovakia
  • List of Countries
  • For 7 days
  • Water Temperature
  • Satellite Maps
  • Weather Map
  • Weather Widgets
  • user-avatar
    Login

    Hourly Weather Munich

    Today, 17 October, Wednesday

    Time Temperature Precipitation Wind Pressure Humidity
    00:00 +12°C° 0 mm 1 mps 718 mmHg 83%
    01:00 +11°C° 0 mm 1 mps 718 mmHg 82%
    02:00 +11°C° 0 mm 1 mps 718 mmHg 82%
    03:00 +11°C° 0 mm 1 mps 718 mmHg 82%
    04:00 +10°C° 0 mm 1 mps 718 mmHg 81%
    05:00 +10°C° 0 mm 1 mps 718 mmHg 81%
    06:00 +10°C° 0 mm 1 mps 718 mmHg 81%
    07:00 +10°C° 0 mm 1 mps 718 mmHg 81%
    08:00 +12°C° 0 mm 1 mps 718 mmHg 74%
    09:00 +14°C° 0 mm 0 mps 718 mmHg 68%
    10:00 +16°C° 0 mm 0 mps 718 mmHg 61%
    11:00 +19°C° 0 mm 1 mps 718 mmHg 59%
    12:00 +20°C° 0 mm 1 mps 717 mmHg 57%
    13:00 +21°C° 0 mm 1 mps 717 mmHg 55%
    14:00 +19°C° 0 mm 2 mps 717 mmHg 59%
    15:00 +19°C° 0 mm 2 mps 717 mmHg 64%
    16:00 +18°C° 0 mm 2 mps 716 mmHg 68%
    17:00 +16°C° 0 mm 1 mps 717 mmHg 75%
    18:00 +14°C° 0 mm 1 mps 717 mmHg 82%
    19:00 +12°C° 0 mm 1 mps 717 mmHg 89%
    20:00 +12°C° 0 mm 1 mps 717 mmHg 89%
    21:00 +12°C° 0 mm 1 mps 717 mmHg 89%
    22:00 +10°C° 0 mm 0 mps 717 mmHg 90%
    23:00 +10°C° 0 mm 0 mps 717 mmHg 90%

    Tomorrow, 18 October, Thursday

    Time Temperature Precipitation Wind Pressure Humidity
    00:00 +9°C° 0 mm 0 mps 717 mmHg 90%
    01:00 +9°C° 0 mm 0 mps 717 mmHg 90%
    02:00 +9°C° 0 mm 0 mps 717 mmHg 90%
    03:00 +9°C° 0 mm 0 mps 717 mmHg 90%
    04:00 +8°C° 0 mm 0 mps 717 mmHg 90%
    05:00 +8°C° 0 mm 0 mps 717 mmHg 90%
    06:00 +8°C° 0 mm 0 mps 717 mmHg 91%
    07:00 +8°C° 0 mm 0 mps 717 mmHg 91%
    08:00 +10°C° 0 mm 0 mps 717 mmHg 84%
    09:00 +12°C° 0 mm 0 mps 717 mmHg 78%
    10:00 +15°C° 0 mm 1 mps 718 mmHg 71%
    11:00 +16°C° 0 mm 1 mps 718 mmHg 68%
    12:00 +18°C° 0 mm 1 mps 717 mmHg 66%
    13:00 +18°C° 0 mm 2 mps 717 mmHg 63%
    14:00 +18°C° 0 mm 2 mps 717 mmHg 66%
    15:00 +18°C° 0 mm 1 mps 717 mmHg 69%
    16:00 +18°C° 0 mm 1 mps 717 mmHg 72%
    17:00 +15°C° 0 mm 1 mps 717 mmHg 78%
    18:00 +14°C° 0 mm 1 mps 717 mmHg 84%
    19:00 +12°C° 0 mm 1 mps 718 mmHg 90%
    20:00 +11°C° 0 mm 1 mps 718 mmHg 91%
    21:00 +11°C° 0 mm 1 mps 718 mmHg 91%
    22:00 +11°C° 0 mm 1 mps 719 mmHg 92%
    23:00 +10°C° 0 mm 1 mps 719 mmHg 93%

    Day after tomorrow, 19 October, Friday

    Time Temperature Precipitation Wind Pressure Humidity
    00:00 +10°C° 0 mm 1 mps 719 mmHg 93%
    01:00 +10°C° 0 mm 1 mps 718 mmHg 94%
    02:00 +9°C° 0 mm 1 mps 718 mmHg 94%
    03:00 +9°C° 0 mm 1 mps 718 mmHg 94%
    04:00 +9°C° 0 mm 1 mps 718 mmHg 95%
    05:00 +9°C° 0 mm 1 mps 719 mmHg 95%
    06:00 +9°C° 0 mm 1 mps 719 mmHg 95%
    07:00 +8°C° 0 mm 1 mps 719 mmHg 95%
    08:00 +10°C° 0 mm 1 mps 719 mmHg 89%
    09:00 +12°C° 0 mm 1 mps 720 mmHg 82%
    10:00 +15°C° 0 mm 2 mps 720 mmHg 76%
    11:00 +16°C° 0 mm 2 mps 720 mmHg 72%
    12:00 +17°C° 0 mm 2 mps 720 mmHg 69%
    13:00 +18°C° 0 mm 3 mps 720 mmHg 65%
    14:00 +17°C° 0 mm 2 mps 720 mmHg 68%
    15:00 +17°C° 0 mm 2 mps 720 mmHg 71%
    16:00 +17°C° 0 mm 2 mps 720 mmHg 74%
    17:00 +15°C° 0 mm 2 mps 720 mmHg 80%
    18:00 +13°C° 0 mm 2 mps 720 mmHg 86%
    19:00 +11°C° 0 mm 1 mps 720 mmHg 92%
    20:00 +11°C° 0 mm 1 mps 721 mmHg 93%
    21:00 +11°C° 0 mm 1 mps 721 mmHg 94%
    22:00 +10°C° 0 mm 1 mps 721 mmHg 94%
    23:00 +10°C° 0 mm 1 mps 721 mmHg 95%

    20 October, Saturday

    Time Temperature Precipitation Wind Pressure Humidity
    00:00 +9°C° 0 mm 1 mps 721 mmHg 95%
    01:00 +9°C° 0 mm 1 mps 721 mmHg 95%
    02:00 +9°C° 0 mm 1 mps 721 mmHg 95%
    03:00 +8°C° 0 mm 1 mps 721 mmHg 95%
    04:00 +8°C° 0 mm 1 mps 721 mmHg 96%
    05:00 +8°C° 0 mm 1 mps 721 mmHg 96%
    06:00 +8°C° 0 mm 1 mps 722 mmHg 96%
    07:00 +7°C° 0 mm 1 mps 722 mmHg 96%
    08:00 +9°C° 0 mm 1 mps 722 mmHg 91%
    09:00 +11°C° 0 mm 1 mps 723 mmHg 86%
    10:00 +13°C° 0 mm 1 mps 723 mmHg 81%
    11:00 +14°C° 0 mm 2 mps 723 mmHg 78%
    12:00 +14°C° 0 mm 2 mps 723 mmHg 74%
    13:00 +15°C° 0 mm 2 mps 723 mmHg 71%
    14:00 +15°C° 0 mm 2 mps 723 mmHg 72%
    15:00 +15°C° 0 mm 2 mps 723 mmHg 74%
    16:00 +14°C° 0 mm 2 mps 723 mmHg 75%
    17:00 +13°C° 0 mm 2 mps 723 mmHg 79%
    18:00 +12°C° 0 mm 2 mps 724 mmHg 83%
    19:00 +10°C° 0 mm 1 mps 724 mmHg 88%
    20:00 +9°C° 0 mm 2 mps 724 mmHg 90%
    21:00 +8°C° 0 mm 2 mps 724 mmHg 92%
    22:00 +8°C° 0 mm 2 mps 725 mmHg 95%
    23:00 +7°C° 0 mm 2 mps 725 mmHg 95%

    21 October, Sunday

    Time Temperature Precipitation Wind Pressure Humidity
    00:00 +7°C° 0 mm 2 mps 724 mmHg 95%
    01:00 +6°C° 0 mm 2 mps 724 mmHg 96%
    02:00 +6°C° 0 mm 2 mps 724 mmHg 96%
    03:00 +6°C° 0 mm 2 mps 724 mmHg 96%
    04:00 +5°C° 0 mm 2 mps 724 mmHg 96%
    05:00 +5°C° 0 mm 2 mps 724 mmHg 96%
    06:00 +5°C° 0 mm 2 mps 724 mmHg 96%
    07:00 +5°C° 0 mm 2 mps 724 mmHg 95%
    08:00 +7°C° 0 mm 2 mps 724 mmHg 88%
    09:00 +9°C° 0 mm 2 mps 724 mmHg 82%
    10:00 +12°C° 0 mm 2 mps 724 mmHg 75%
    11:00 +12°C° 0 mm 3 mps 724 mmHg 70%
    12:00 +13°C° 0 mm 3 mps 723 mmHg 65%
    13:00 +16°C° 0 mm 3 mps 723 mmHg 60%
    14:00 +15°C° 0 mm 2 mps 723 mmHg 63%
    15:00 +15°C° 0 mm 2 mps 722 mmHg 67%
    16:00 +14°C° 0 mm 2 mps 722 mmHg 70%
    17:00 +12°C° 0 mm 2 mps 722 mmHg 76%
    18:00 +10°C° 0 mm 1 mps 722 mmHg 82%
    19:00 +9°C° 0 mm 1 mps 723 mmHg 87%
    20:00 +8°C° 0 mm 1 mps 723 mmHg 87%
    21:00 +8°C° 0 mm 1 mps 723 mmHg 87%
    22:00 +6°C° 0 mm 0 mps 723 mmHg 87%
    23:00 +6°C° 0 mm 0 mps 722 mmHg 87%

    22 October, Monday

    Time Temperature Precipitation Wind Pressure Humidity
    00:00 +6°C° 0 mm 0 mps 722 mmHg 87%
    01:00 +6°C° 0 mm 0 mps 722 mmHg 87%
    02:00 +6°C° 0 mm 0 mps 722 mmHg 87%
    03:00 +5°C° 0 mm 0 mps 722 mmHg 87%
    04:00 +5°C° 0 mm 0 mps 721 mmHg 87%
    05:00 +5°C° 0 mm 0 mps 721 mmHg 87%
    06:00 +5°C° 0 mm 0 mps 722 mmHg 86%
    07:00 +5°C° 0 mm 0 mps 722 mmHg 86%
    08:00 +7°C° 0 mm 0 mps 722 mmHg 79%
    09:00 +9°C° 0 mm 0 mps 722 mmHg 71%
    10:00 +12°C° 0 mm 1 mps 722 mmHg 64%
    11:00 +13°C° 0 mm 1 mps 721 mmHg 60%
    12:00 +14°C° 0 mm 1 mps 721 mmHg 56%
    13:00 +15°C° 0 mm 2 mps 721 mmHg 52%
    14:00 +15°C° 0 mm 2 mps 720 mmHg 56%
    15:00 +15°C° 0 mm 1 mps 720 mmHg 59%
    16:00 +14°C° 0 mm 1 mps 720 mmHg 63%
    17:00 +12°C° 0 mm 1 mps 720 mmHg 68%
    18:00 +10°C° 0 mm 1 mps 720 mmHg 74%
    19:00 +7°C° 0 mm 0 mps 720 mmHg 79%
    20:00 +8°C° 0 mm 1 mps 720 mmHg 80%
    21:00 +7°C° 0 mm 1 mps 720 mmHg 81%
    22:00 +7°C° 0 mm 1 mps 720 mmHg 82%
    23:00 +6°C° 0 mm 1 mps 720 mmHg 84%
    Show more